Location: El Hornillo
(40.2499°N, 5.1036°W)
Time: 21:26:32
(UTC+00:00)

Cosmos 1954 Rocket - Pass Details

Date: 05 August 2024
Orbit: 749 x 779 km, 74.0° (Epoch: 17 September)

Event Time Altitude Azimuth Distance (km) Brightness Sun altitude
Rises 21:25:22 0° 337° (NNW) 3,214 8.4 -19.3°
Reaches altitude 10° 21:27:44 10° 334° (NNW) 2,289 7.5 -19.6°
Maximum altitude 21:32:51 62° 255° (WSW) 854 4.3 -20.3°
Enters shadow 21:35:20 30° 185° (S) 1,343 4.9 -20.6°
